Meteo pe oră la Al Kharj

Astăzi, 17 Ianuarie, Duminică

Timp Temperatura Precipitaţii Vânt Presiune Umiditate
00:00 +18°C° 0 mm 4 m/s 722 mmHg 32%
01:00 +17°C° 0 mm 4 m/s 721 mmHg 32%
02:00 +17°C° 0 mm 4 m/s 721 mmHg 32%
03:00 +16°C° 0 mm 3 m/s 720 mmHg 33%
04:00 +16°C° 0 mm 3 m/s 721 mmHg 32%
05:00 +16°C° 0 mm 3 m/s 721 mmHg 32%
06:00 +14°C° 0 mm 3 m/s 722 mmHg 32%
07:00 +18°C° 0 mm 4 m/s 722 mmHg 28%
08:00 +20°C° 0 mm 4 m/s 722 mmHg 24%
09:00 +22°C° 0 mm 5 m/s 723 mmHg 19%
10:00 +25°C° 0 mm 5 m/s 723 mmHg 18%
11:00 +28°C° 0 mm 5 m/s 722 mmHg 17%
12:00 +30°C° 0 mm 5 m/s 722 mmHg 15%
13:00 +30°C° 0 mm 5 m/s 722 mmHg 15%
14:00 +32°C° 0 mm 6 m/s 721 mmHg 14%
15:00 +32°C° 0 mm 6 m/s 721 mmHg 14%
16:00 +29°C° 0 mm 5 m/s 721 mmHg 17%
17:00 +27°C° 0 mm 4 m/s 721 mmHg 19%
18:00 +25°C° 0 mm 4 m/s 721 mmHg 22%
19:00 +22°C° 0 mm 3 m/s 722 mmHg 25%
20:00 +21°C° 0 mm 3 m/s 722 mmHg 28%
21:00 +20°C° 0 mm 2 m/s 722 mmHg 31%
22:00 +19°C° 0 mm 3 m/s 722 mmHg 32%
23:00 +18°C° 0 mm 3 m/s 722 mmHg 34%

Mâine, 18 Ianuarie, Luni

Timp Temperatura Precipitaţii Vânt Presiune Umiditate
00:00 +18°C° 0 mm 4 m/s 723 mmHg 35%
01:00 +16°C° 0 mm 3 m/s 722 mmHg 37%
02:00 +15°C° 0 mm 2 m/s 722 mmHg 40%
03:00 +14°C° 0 mm 2 m/s 722 mmHg 42%
04:00 +14°C° 0 mm 2 m/s 722 mmHg 44%
05:00 +13°C° 0 mm 2 m/s 723 mmHg 46%
06:00 +12°C° 0 mm 1 m/s 723 mmHg 48%
07:00 +14°C° 0 mm 1 m/s 724 mmHg 42%
08:00 +18°C° 0 mm 1 m/s 724 mmHg 36%
09:00 +19°C° 0 mm 2 m/s 725 mmHg 31%
10:00 +22°C° 0 mm 1 m/s 725 mmHg 27%
11:00 +24°C° 0 mm 1 m/s 725 mmHg 24%
12:00 +26°C° 0 mm 1 m/s 725 mmHg 21%
13:00 +27°C° 0 mm 1 m/s 724 mmHg 19%
14:00 +28°C° 0 mm 1 m/s 724 mmHg 18%
15:00 +29°C° 0 mm 1 m/s 723 mmHg 16%
16:00 +27°C° 0 mm 2 m/s 724 mmHg 19%
17:00 +25°C° 0 mm 2 m/s 724 mmHg 21%
18:00 +22°C° 0 mm 3 m/s 724 mmHg 23%
19:00 +21°C° 0 mm 4 m/s 724 mmHg 25%
20:00 +20°C° 0 mm 4 m/s 724 mmHg 27%
21:00 +19°C° 0 mm 4 m/s 725 mmHg 29%
22:00 +17°C° 0 mm 4 m/s 725 mmHg 30%
23:00 +15°C° 0 mm 4 m/s 725 mmHg 32%

Poimâine, 19 Ianuarie, Marţi

Timp Temperatura Precipitaţii Vânt Presiune Umiditate
00:00 +14°C° 0 mm 3 m/s 725 mmHg 34%
01:00 +13°C° 0 mm 3 m/s 725 mmHg 37%
02:00 +13°C° 0 mm 2 m/s 725 mmHg 40%
03:00 +12°C° 0 mm 2 m/s 725 mmHg 42%
04:00 +10°C° 0 mm 2 m/s 725 mmHg 44%
05:00 +11°C° 0 mm 1 m/s 725 mmHg 46%
06:00 +10°C° 0 mm 1 m/s 726 mmHg 47%
07:00 +12°C° 0 mm 2 m/s 726 mmHg 42%
08:00 +15°C° 0 mm 2 m/s 726 mmHg 37%
09:00 +17°C° 0 mm 2 m/s 727 mmHg 32%
10:00 +19°C° 0 mm 2 m/s 726 mmHg 28%
11:00 +21°C° 0 mm 3 m/s 726 mmHg 25%
12:00 +24°C° 0 mm 3 m/s 726 mmHg 21%
13:00 +24°C° 0 mm 3 m/s 725 mmHg 20%
14:00 +25°C° 0 mm 3 m/s 725 mmHg 19%
15:00 +26°C° 0 mm 3 m/s 724 mmHg 18%
16:00 +23°C° 0 mm 4 m/s 724 mmHg 20%
17:00 +22°C° 0 mm 4 m/s 724 mmHg 22%
18:00 +20°C° 0 mm 4 m/s 724 mmHg 25%
19:00 +19°C° 0 mm 4 m/s 724 mmHg 27%
20:00 +18°C° 0 mm 4 m/s 724 mmHg 29%
21:00 +17°C° 0 mm 4 m/s 725 mmHg 31%
22:00 +15°C° 0 mm 4 m/s 724 mmHg 34%
23:00 +14°C° 0 mm 4 m/s 724 mmHg 36%

20 Ianuarie, Miercuri

Timp Temperatura Precipitaţii Vânt Presiune Umiditate
00:00 +14°C° 0 mm 3 m/s 724 mmHg 39%
01:00 +13°C° 0 mm 3 m/s 724 mmHg 42%
02:00 +13°C° 0 mm 3 m/s 723 mmHg 46%
03:00 +12°C° 0 mm 3 m/s 723 mmHg 49%
04:00 +12°C° 0 mm 3 m/s 723 mmHg 51%
05:00 +11°C° 0 mm 3 m/s 723 mmHg 54%
06:00 +11°C° 0 mm 3 m/s 723 mmHg 56%
07:00 +13°C° 0 mm 3 m/s 724 mmHg 51%
08:00 +15°C° 0 mm 4 m/s 724 mmHg 45%
09:00 +18°C° 0 mm 4 m/s 724 mmHg 39%
10:00 +21°C° 0 mm 5 m/s 724 mmHg 34%
11:00 +24°C° 0 mm 6 m/s 724 mmHg 28%
12:00 +28°C° 0 mm 8 m/s 724 mmHg 22%
13:00 +28°C° 0 mm 8 m/s 723 mmHg 21%
14:00 +29°C° 0 mm 8 m/s 722 mmHg 20%
15:00 +31°C° 0 mm 8 m/s 722 mmHg 18%
16:00 +28°C° 0 mm 7 m/s 722 mmHg 21%
17:00 +26°C° 0 mm 6 m/s 722 mmHg 23%
18:00 +23°C° 0 mm 4 m/s 722 mmHg 26%
19:00 +22°C° 0 mm 5 m/s 723 mmHg 27%
20:00 +22°C° 0 mm 5 m/s 723 mmHg 28%
21:00 +21°C° 0 mm 5 m/s 724 mmHg 29%
22:00 +20°C° 0 mm 5 m/s 724 mmHg 30%
23:00 +19°C° 0 mm 6 m/s 724 mmHg 30%

21 Ianuarie, Joi

Timp Temperatura Precipitaţii Vânt Presiune Umiditate
00:00 +17°C° 0 mm 7 m/s 724 mmHg 30%
01:00 +16°C° 0 mm 6 m/s 725 mmHg 32%
02:00 +14°C° 0 mm 6 m/s 725 mmHg 35%
03:00 +13°C° 0 mm 5 m/s 726 mmHg 37%
04:00 +12°C° 0 mm 5 m/s 726 mmHg 40%
05:00 +12°C° 0 mm 5 m/s 727 mmHg 43%
06:00 +10°C° 0 mm 5 m/s 728 mmHg 46%
07:00 +11°C° 0 mm 6 m/s 728 mmHg 40%
08:00 +12°C° 0 mm 7 m/s 729 mmHg 33%
09:00 +13°C° 0 mm 9 m/s 730 mmHg 27%
10:00 +15°C° 0 mm 9 m/s 730 mmHg 25%
11:00 +16°C° 0 mm 8 m/s 729 mmHg 23%
12:00 +17°C° 0 mm 8 m/s 729 mmHg 21%
13:00 +17°C° 0 mm 8 m/s 729 mmHg 20%
14:00 +18°C° 0 mm 8 m/s 728 mmHg 19%
15:00 +18°C° 0 mm 8 m/s 728 mmHg 19%
16:00 +16°C° 0 mm 7 m/s 728 mmHg 22%
17:00 +14°C° 0 mm 5 m/s 728 mmHg 25%
18:00 +13°C° 0 mm 4 m/s 729 mmHg 28%
19:00 +12°C° 0 mm 4 m/s 729 mmHg 30%
20:00 +11°C° 0 mm 4 m/s 729 mmHg 33%
21:00 +10°C° 0 mm 4 m/s 730 mmHg 36%
22:00 +8°C° 0 mm 4 m/s 730 mmHg 38%
23:00 +8°C° 0 mm 4 m/s 730 mmHg 40%

22 Ianuarie, Vineri

Timp Temperatura Precipitaţii Vânt Presiune Umiditate
00:00 +7°C° 0 mm 4 m/s 730 mmHg 42%
01:00 +6°C° 0 mm 4 m/s 729 mmHg 43%
02:00 +6°C° 0 mm 4 m/s 729 mmHg 44%
03:00 +5°C° 0 mm 4 m/s 729 mmHg 45%
04:00 +5°C° 0 mm 4 m/s 729 mmHg 46%
05:00 +5°C° 0 mm 3 m/s 729 mmHg 47%
06:00 +4°C° 0 mm 3 m/s 730 mmHg 48%
07:00 +6°C° 0 mm 4 m/s 730 mmHg 41%
08:00 +7°C° 0 mm 5 m/s 730 mmHg 33%
09:00 +9°C° 0 mm 6 m/s 731 mmHg 26%
10:00 +11°C° 0 mm 6 m/s 730 mmHg 20%
11:00 +14°C° 0 mm 6 m/s 730 mmHg 15%
12:00 +16°C° 0 mm 6 m/s 729 mmHg 9%
13:00 +16°C° 0 mm 5 m/s 729 mmHg 8%
14:00 +17°C° 0 mm 5 m/s 728 mmHg 7%
15:00 +19°C° 0 mm 5 m/s 728 mmHg 6%
16:00 +17°C° 0 mm 4 m/s 728 mmHg 7%
17:00 +14°C° 0 mm 4 m/s 727 mmHg 9%
18:00 +12°C° 0 mm 4 m/s 727 mmHg 10%
19:00 +11°C° 0 mm 4 m/s 728 mmHg 11%
20:00 +10°C° 0 mm 4 m/s 728 mmHg 12%
21:00 +8°C° 0 mm 4 m/s 728 mmHg 13%
22:00 +9°C° 0 mm 3 m/s 728 mmHg 14%
23:00 +8°C° 0 mm 3 m/s 728 mmHg 15%
Arată mai mult

Formular de consimțământ

Meteoprog și furnizorii noștri de servicii pot stoca și accesa date personale, precum cookies, identificatori de dispozitiv sau alte tehnologii similare pe dispozitivul dumneavoastră și procesa astfel de date pentru a personaliza conținutul și reclamele, dar și pentru a oferi caracteristici de social media și pentru a analiza traficul.

  • Stocarea și/sau accesarea informațiilor pe dispozitivul dumneavoastră

    Cookies, identificatori de dispozitiv sau alte informații pot fi stocate sau accesate pe dispozitiv în scopurile indicate mai sus.

  • Reclame și conținut personalizat, evaluarea reclamelor și a conținutului, informații despre audiențe și dezvoltarea produselor

    Reclamele și conținutul pot fi personalizate pe baza unui profil. Pot fi adăugate date suplimentare pentru a personaliza mai bine reclamele și conținutul. Performanța reclamelor și conținutului poate fi măsurată. Pot fi obținute informații despre utilizatorii care au văzut reclamele și conținutul. Aceste date pot fi utilizate pentru a dezvolta sau îmbunătăți experiența utilizatorilor, sistemele și software-ul.

Dând clic pe ‘Sunt de acord’, permiteți utilizarea cookie-urilor menționate, a identificatorilor de dispozitiv, balizelor web sau altor tehnologii similare. Setările pot fi modificate din browser-ul dispozitivului dumneavoastră.

În anumite scopuri, interesele legitime pot prima asupra consimțământului. Puteți citi mai multe informații în acest sens în Politica privind Confidențialitatea Datelor și Cookie.